Date String (YYYY-MM-DD hh:mm:ss) UTC,Instrument flags,absolute air pressure of the measurement (hPa),sample flow rate (lpm),inlet stack bypass flow (lpm),air temperature of the measurement (°C),ambient temperature measured by the external sensor (°C),aerosol sample conditioner tube jacket temperature (°C),OPC LED temperature (°C),internal box temperature (°C),relative humidity of the measurement (%),span deviation,mass concentration of particles derived from Lorenz-Mie calculation of OPC scattering (μg/m³),mass concentration of particles derived from Lorenz-Mie calculation of OPC scattering (μg/m³),mass concentration of particles derived from Lorenz-Mie calculation of OPC scattering (μg/m³)
DateTimeUTC,F1_M11,P_M11,Q1_M11,Q2_M11,T1_M11,T2_M11,T3_M11,T4_M11,T5_M11,U1_M11,ZSPAN_M11,X0_M11,X2_M11,X1_M11
2024-06-02 22:00:00,SystemResetWarning,0822.4,4.99,000.00,029.4,029.1,000.0,037.4,031.3,019.1,0000.0,0014.84,0004.57,0003.51
2024-06-02 22:01:00,SystemResetWarning,0822.4,5.00,000.00,029.5,028.8,000.0,037.5,031.1,017.8,0000.0,0014.80,0004.56,0003.51
2024-06-02 22:02:00,SystemResetWarning,0822.4,5.00,000.00,029.2,026.5,000.0,037.5,030.0,017.8,0000.0,0015.02,0004.57,0003.52
2024-06-02 22:03:00,SystemResetWarning,0822.3,5.01,000.00,028.7,025.4,000.0,037.5,029.4,018.4,0000.0,0016.31,0004.55,0003.52
2024-06-02 22:04:00,SystemResetWarning,0822.4,5.01,000.00,028.6,025.9,000.0,037.5,029.6,018.1,0000.0,0017.41,0004.58,0003.52
2024-06-02 22:05:00,SystemResetWarning,0822.4,5.00,000.00,028.6,026.4,000.0,037.3,029.9,018.1,0000.0,0017.15,0004.54,0003.50
2024-06-02 22:06:00,SystemResetWarning,0822.5,5.00,000.00,028.7,026.8,000.0,037.2,030.2,018.7,0000.0,0016.69,0004.54,0003.49
2024-06-02 22:07:00,SystemResetWarning,0822.4,5.00,000.00,028.8,027.3,000.0,037.2,030.4,018.6,0000.0,0015.83,0004.52,0003.49
2024-06-02 22:08:00,SystemResetWarning,0822.4,5.00,000.00,028.8,027.7,000.0,037.2,030.6,018.5,0000.0,0015.83,0004.52,0003.48
2024-06-02 22:09:00,SystemResetWarning,0822.4,5.00,000.00,028.9,028.0,000.0,037.2,030.7,019.0,0000.0,0015.92,0004.57,0003.47
2024-06-02 22:10:00,SystemResetWarning,0822.4,5.00,000.00,029.0,028.2,000.0,037.2,030.8,018.8,0000.0,0016.02,0004.62,0003.48
2024-06-02 22:11:00,SystemResetWarning,0822.5,5.00,000.00,029.1,028.5,000.0,037.2,030.9,019.1,0000.0,0015.83,0004.61,0003.49
2024-06-02 22:12:00,SystemResetWarning,0822.4,5.00,000.00,029.2,028.7,000.0,037.2,031.0,018.9,0000.0,0015.01,0004.66,0003.50
2024-06-02 22:13:00,SystemResetWarning,0822.6,4.99,000.00,029.3,028.8,000.0,037.3,031.1,018.6,0000.0,0015.73,0004.69,0003.50
2024-06-02 22:14:00,SystemResetWarning,0822.4,5.00,000.00,029.4,029.0,000.0,037.3,031.2,018.4,0000.0,0014.72,0004.73,0003.49
2024-06-02 22:15:00,SystemResetWarning,0822.5,5.00,000.00,029.4,029.1,000.0,037.4,031.3,018.6,0000.0,0013.56,0004.74,0003.49
2024-06-02 22:16:00,SystemResetWarning,0822.4,4.99,000.00,029.5,028.7,000.0,037.5,031.1,017.9,0000.0,0014.08,0004.77,0003.49
2024-06-02 22:17:00,SystemResetWarning,0822.4,5.00,000.00,029.2,026.4,000.0,037.5,030.0,018.8,0000.0,0015.28,0004.78,0003.50
2024-06-02 22:18:00,SystemResetWarning,0822.4,5.01,000.00,028.8,025.4,000.0,037.5,029.5,019.9,0000.0,0016.01,0004.85,0003.51
2024-06-02 22:19:00,SystemResetWarning,0822.4,5.00,000.00,028.7,026.0,000.0,037.4,029.7,019.2,0000.0,0018.33,0004.91,0003.52
2024-06-02 22:20:00,SystemResetWarning,0822.4,5.00,000.00,028.7,026.4,000.0,037.3,029.9,019.0,0000.0,0019.86,0004.95,0003.53
2024-06-02 22:21:00,SystemResetWarning,0822.5,5.00,000.00,028.7,026.9,000.0,037.2,030.2,019.2,0000.0,0020.34,0004.99,0003.54
2024-06-02 22:22:00,SystemResetWarning,0822.5,5.00,000.00,028.8,027.3,000.0,037.2,030.4,019.9,0000.0,0021.73,0004.98,0003.54
2024-06-02 22:23:00,SystemResetWarning,0822.7,5.00,000.00,028.9,027.7,000.0,037.2,030.6,019.5,0000.0,0022.93,0004.93,0003.51
2024-06-02 22:24:00,SystemResetWarning,0823.1,5.01,000.00,028.9,028.0,000.0,037.2,030.8,019.5,0000.0,0022.24,0004.86,0003.50
2024-06-02 22:25:00,SystemResetWarning,0823.0,4.99,000.00,029.0,028.2,000.0,037.2,030.9,019.5,0000.0,0022.41,0004.80,0003.50
2024-06-02 22:26:00,SystemResetWarning,0822.7,4.99,000.00,029.1,028.5,000.0,037.2,031.0,019.6,0000.0,0022.17,0004.75,0003.50
2024-06-02 22:27:00,SystemResetWarning,0822.6,5.00,000.00,029.2,028.7,000.0,037.3,031.1,018.7,0000.0,0021.65,0004.75,0003.50
2024-06-02 22:28:00,SystemResetWarning,0822.6,5.00,000.00,029.3,028.9,000.0,037.3,031.2,018.7,0000.0,0020.27,0004.73,0003.49
2024-06-02 22:29:00,SystemResetWarning,0822.6,5.00,000.00,029.4,029.0,000.0,037.3,031.2,018.3,0000.0,0020.61,0004.73,0003.49
2024-06-02 22:30:00,SystemResetWarning,0822.6,5.00,000.00,029.4,029.1,000.0,037.4,031.3,018.1,0000.0,0018.61,0004.67,0003.50
2024-06-02 22:31:00,SystemResetWarning,0822.6,4.98,000.00,029.5,028.5,000.0,037.5,031.0,018.5,0000.0,0016.84,0004.63,0003.49
2024-06-02 22:32:00,SystemResetWarning,0822.7,5.00,000.00,029.1,026.3,000.0,037.5,029.9,019.2,0000.0,0016.91,0004.55,0003.49
2024-06-02 22:33:00,SystemResetWarning,0822.5,5.01,000.00,028.8,025.4,000.0,037.5,029.5,019.3,0000.0,0016.70,0004.58,0003.49
2024-06-02 22:34:00,SystemResetWarning,0822.7,5.01,000.00,028.7,026.0,000.0,037.4,029.7,019.2,0000.0,0016.24,0004.58,0003.49
2024-06-02 22:35:00,SystemResetWarning,0823.0,5.00,000.00,028.7,026.5,000.0,037.3,030.0,018.9,0000.0,0016.18,0004.58,0003.49
2024-06-02 22:36:00,SystemResetWarning,0822.6,5.00,000.00,028.7,026.9,000.0,037.3,030.2,018.7,0000.0,0015.69,0004.60,0003.48
2024-06-02 22:37:00,SystemResetWarning,0822.7,4.99,000.00,028.8,027.4,000.0,037.2,030.4,018.4,0000.0,0015.95,0004.66,0003.47
2024-06-02 22:38:00,SystemResetWarning,0822.7,5.00,000.00,028.9,027.7,000.0,037.2,030.6,018.7,0000.0,0016.46,0004.65,0003.48
2024-06-02 22:39:00,SystemResetWarning,0822.7,5.00,000.00,028.9,028.0,000.0,037.2,030.7,018.6,0000.0,0017.45,0004.60,0003.47
2024-06-02 22:40:00,SystemResetWarning,0822.6,5.00,000.00,029.0,028.3,000.0,037.2,030.8,018.9,0000.0,0017.77,0004.56,0003.46
2024-06-02 22:41:00,SystemResetWarning,0822.6,4.99,000.00,029.1,028.5,000.0,037.2,031.0,019.6,0000.0,0018.36,0004.54,0003.45
2024-06-02 22:42:00,SystemResetWarning,0822.6,5.00,000.00,029.2,028.7,000.0,037.3,031.1,019.1,0000.0,0017.60,0004.57,0003.45
2024-06-02 22:43:00,SystemResetWarning,0822.7,4.99,000.00,029.3,028.9,000.0,037.3,031.2,018.3,0000.0,0017.44,0004.58,0003.44
2024-06-02 22:44:00,SystemResetWarning,0822.7,5.00,000.00,029.4,029.0,000.0,037.3,031.3,018.9,0000.0,0015.99,0004.51,0003.43
2024-06-02 22:45:00,SystemResetWarning,0822.6,5.00,000.00,029.5,029.1,000.0,037.4,031.4,018.7,0000.0,0015.28,0004.51,0003.44
2024-06-02 22:46:00,SystemResetWarning,0822.8,5.00,000.00,029.5,029.1,000.0,037.5,031.3,018.3,0000.0,0016.28,0004.51,0003.44
2024-06-02 22:47:00,SystemResetWarning,0822.6,4.99,000.00,029.4,027.3,000.0,037.6,030.4,019.2,0000.0,0016.94,0004.50,0003.45
2024-06-02 22:48:00,SystemResetWarning,0822.9,5.00,000.00,028.9,025.3,000.0,037.6,029.5,019.3,0000.0,0016.97,0004.48,0003.45
2024-06-02 22:49:00,SystemResetWarning,0822.8,5.02,000.00,028.7,025.6,000.0,037.5,029.5,019.4,0000.0,0016.85,0004.45,0003.45
2024-06-02 22:50:00,SystemResetWarning,0822.7,5.01,000.00,028.7,026.1,000.0,037.4,029.8,020.0,0000.0,0016.49,0004.47,0003.46
2024-06-02 22:51:00,SystemResetWarning,0822.8,5.00,000.00,028.7,026.6,000.0,037.3,030.1,020.6,0000.0,0015.31,0004.45,0003.47
2024-06-02 22:52:00,SystemResetWarning,0823.0,5.00,000.00,028.7,027.1,000.0,037.3,030.3,020.3,0000.0,0014.58,0004.45,0003.47
2024-06-02 22:53:00,SystemResetWarning,0823.0,4.99,000.00,028.8,027.5,000.0,037.2,030.5,020.6,0000.0,0014.23,0004.38,0003.47
2024-06-02 22:54:00,SystemResetWarning,0822.9,5.00,000.00,028.9,027.8,000.0,037.2,030.7,019.2,0000.0,0014.97,0004.39,0003.46
2024-06-02 22:55:00,SystemResetWarning,0822.9,5.01,000.00,029.0,028.1,000.0,037.2,030.8,019.3,0000.0,0016.23,0004.41,0003.45
2024-06-02 22:56:00,SystemResetWarning,0822.9,4.99,000.00,029.1,028.4,000.0,037.2,030.9,018.5,0000.0,0015.78,0004.39,0003.44
2024-06-02 22:57:00,SystemResetWarning,0822.9,4.99,000.00,029.1,028.6,000.0,037.3,031.0,018.7,0000.0,0015.41,0004.40,0003.42
2024-06-02 22:58:00,SystemResetWarning,0822.9,5.00,000.00,029.2,028.8,000.0,037.3,031.1,018.8,0000.0,0015.35,0004.40,0003.40
2024-06-02 22:59:00,SystemResetWarning,0822.9,5.01,000.00,029.3,028.9,000.0,037.3,031.2,017.9,0000.0,0015.09,0004.37,0003.39
